• In Hungary
  • List of Countries
  • For 7 days
  • Water Temperature
  • Satellite Maps
  • Weather Map
  • News
  • Weather Widgets
  • user-avatar
    Login

    Hourly Weather Sangkhla Buri

    Today, 23 February, Friday

    Time Temperature Precipitation Wind Pressure Humidity
    00:00 +23°C° 0.1 mm 0 mps 740 mmHg 78%
    01:00 +22°C° 0 mm 0 mps 740 mmHg 77%
    02:00 +22°C° 0.1 mm 0 mps 740 mmHg 77%
    03:00 +22°C° 0.1 mm 0 mps 740 mmHg 78%
    04:00 +22°C° 0.1 mm 0 mps 739 mmHg 79%
    05:00 +22°C° 0 mm 0 mps 740 mmHg 80%
    06:00 +22°C° 0 mm 0 mps 740 mmHg 81%
    07:00 +22°C° 0 mm 0 mps 740 mmHg 81%
    08:00 +27°C° 0 mm 1 mps 741 mmHg 69%
    09:00 +30°C° 0 mm 1 mps 741 mmHg 56%
    10:00 +34°C° 0 mm 1 mps 741 mmHg 44%
    11:00 +35°C° 0.1 mm 1 mps 741 mmHg 41%
    12:00 +36°C° 0.1 mm 1 mps 741 mmHg 38%
    13:00 +37°C° 0.1 mm 1 mps 740 mmHg 35%
    14:00 +36°C° 0.4 mm 1 mps 740 mmHg 40%
    15:00 +34°C° 0.4 mm 1 mps 739 mmHg 45%
    16:00 +33°C° 0.4 mm 1 mps 738 mmHg 50%
    17:00 +31°C° 0.7 mm 1 mps 739 mmHg 58%
    18:00 +29°C° 0.7 mm 1 mps 739 mmHg 65%
    19:00 +25°C° 0.7 mm 0 mps 739 mmHg 73%
    20:00 +24°C° 0.5 mm 0 mps 739 mmHg 77%
    21:00 +24°C° 0.5 mm 0 mps 740 mmHg 81%
    22:00 +23°C° 0.5 mm 0 mps 741 mmHg 85%
    23:00 +23°C° 0.1 mm 0 mps 741 mmHg 86%

    Tomorrow, 24 February, Saturday

    Time Temperature Precipitation Wind Pressure Humidity
    00:00 +22°C° 0.1 mm 0 mps 741 mmHg 86%
    01:00 +22°C° 0.1 mm 0 mps 741 mmHg 87%
    02:00 +22°C° 0.2 mm 0 mps 741 mmHg 87%
    03:00 +22°C° 0.2 mm 0 mps 740 mmHg 87%
    04:00 +24°C° 0.2 mm 1 mps 740 mmHg 87%
    05:00 +22°C° 0.1 mm 0 mps 740 mmHg 87%
    06:00 +22°C° 0.1 mm 0 mps 741 mmHg 87%
    07:00 +21°C° 0.1 mm 0 mps 741 mmHg 87%
    08:00 +25°C° 0.3 mm 0 mps 742 mmHg 74%
    09:00 +29°C° 0.3 mm 0 mps 742 mmHg 62%
    10:00 +32°C° 0.3 mm 0 mps 743 mmHg 49%
    11:00 +33°C° 0.5 mm 0 mps 743 mmHg 46%
    12:00 +34°C° 0.5 mm 0 mps 742 mmHg 43%
    13:00 +37°C° 0.5 mm 1 mps 742 mmHg 40%
    14:00 +36°C° 0.7 mm 1 mps 741 mmHg 45%
    15:00 +35°C° 0.7 mm 1 mps 740 mmHg 49%
    16:00 +33°C° 0.7 mm 1 mps 740 mmHg 54%
    17:00 +31°C° 1.1 mm 1 mps 740 mmHg 62%
    18:00 +29°C° 1.1 mm 1 mps 740 mmHg 71%
    19:00 +25°C° 1.1 mm 0 mps 740 mmHg 79%
    20:00 +24°C° 0.2 mm 0 mps 741 mmHg 82%
    21:00 +24°C° 0.2 mm 0 mps 742 mmHg 85%
    22:00 +23°C° 0.2 mm 0 mps 742 mmHg 88%
    23:00 +23°C° 0 mm 0 mps 742 mmHg 88%

    Day after tomorrow, 25 February, Sunday

    Time Temperature Precipitation Wind Pressure Humidity
    00:00 +23°C° 0 mm 0 mps 742 mmHg 89%
    01:00 +22°C° 0 mm 0 mps 741 mmHg 89%
    02:00 +22°C° 0 mm 0 mps 741 mmHg 89%
    03:00 +22°C° 0 mm 0 mps 741 mmHg 89%
    04:00 +22°C° 0 mm 0 mps 740 mmHg 89%
    05:00 +22°C° 0 mm 0 mps 740 mmHg 89%
    06:00 +22°C° 0 mm 0 mps 741 mmHg 89%
    07:00 +22°C° 0 mm 0 mps 741 mmHg 89%
    08:00 +25°C° 0 mm 0 mps 742 mmHg 75%
    09:00 +30°C° 0 mm 1 mps 742 mmHg 61%
    10:00 +34°C° 0 mm 1 mps 743 mmHg 47%
    11:00 +35°C° 0 mm 1 mps 742 mmHg 42%
    12:00 +37°C° 0 mm 1 mps 741 mmHg 37%
    13:00 +40°C° 0 mm 1 mps 741 mmHg 31%
    14:00 +37°C° 0 mm 1 mps 740 mmHg 36%
    15:00 +36°C° 0 mm 1 mps 739 mmHg 41%
    16:00 +34°C° 0 mm 1 mps 738 mmHg 46%
    17:00 +32°C° 0.1 mm 1 mps 739 mmHg 53%
    18:00 +30°C° 0.1 mm 1 mps 739 mmHg 60%
    19:00 +29°C° 0.1 mm 1 mps 739 mmHg 67%
    20:00 +28°C° 0.4 mm 1 mps 740 mmHg 71%
    21:00 +25°C° 0.4 mm 0 mps 740 mmHg 75%
    22:00 +24°C° 0.4 mm 0 mps 741 mmHg 80%
    23:00 +24°C° 0.1 mm 0 mps 740 mmHg 81%

    26 February, Monday

    Time Temperature Precipitation Wind Pressure Humidity
    00:00 +23°C° 0.1 mm 0 mps 740 mmHg 82%
    01:00 +23°C° 0.1 mm 0 mps 740 mmHg 83%
    02:00 +23°C° 0.2 mm 0 mps 739 mmHg 84%
    03:00 +22°C° 0.2 mm 0 mps 739 mmHg 85%
    04:00 +22°C° 0.2 mm 0 mps 739 mmHg 86%
    05:00 +22°C° 0.2 mm 0 mps 739 mmHg 86%
    06:00 +22°C° 0.2 mm 0 mps 740 mmHg 86%
    07:00 +22°C° 0.2 mm 0 mps 740 mmHg 86%
    08:00 +26°C° 0.1 mm 0 mps 740 mmHg 73%
    09:00 +29°C° 0.1 mm 0 mps 741 mmHg 59%
    10:00 +33°C° 0.1 mm 0 mps 741 mmHg 46%
    11:00 +36°C° 0.1 mm 1 mps 741 mmHg 41%
    12:00 +39°C° 0.1 mm 1 mps 740 mmHg 37%
    13:00 +40°C° 0.1 mm 1 mps 739 mmHg 32%
    14:00 +39°C° 0 mm 1 mps 739 mmHg 36%
    15:00 +36°C° 0 mm 1 mps 738 mmHg 39%
    16:00 +35°C° 0 mm 1 mps 737 mmHg 43%
    17:00 +33°C° 0.4 mm 1 mps 738 mmHg 50%
    18:00 +29°C° 0.4 mm 0 mps 738 mmHg 58%
    19:00 +27°C° 0.4 mm 0 mps 738 mmHg 66%
    20:00 +26°C° 0.7 mm 0 mps 739 mmHg 70%
    21:00 +25°C° 0.7 mm 0 mps 739 mmHg 75%
    22:00 +24°C° 0.7 mm 0 mps 740 mmHg 80%
    23:00 +24°C° 0.4 mm 0 mps 740 mmHg 81%

    27 February, Tuesday

    Time Temperature Precipitation Wind Pressure Humidity
    00:00 +23°C° 0.4 mm 0 mps 739 mmHg 83%
    01:00 +23°C° 0.4 mm 0 mps 739 mmHg 85%
    02:00 +23°C° 0.5 mm 0 mps 739 mmHg 86%
    03:00 +22°C° 0.5 mm 0 mps 739 mmHg 86%
    04:00 +22°C° 0.5 mm 0 mps 739 mmHg 87%
    05:00 +22°C° 0.1 mm 0 mps 739 mmHg 87%
    06:00 +22°C° 0.1 mm 0 mps 740 mmHg 88%
    07:00 +22°C° 0.1 mm 0 mps 740 mmHg 88%
    08:00 +25°C° 0 mm 0 mps 740 mmHg 74%
    09:00 +29°C° 0 mm 0 mps 741 mmHg 59%
    10:00 +33°C° 0 mm 0 mps 741 mmHg 45%
    11:00 +34°C° 0 mm 0 mps 740 mmHg 40%
    12:00 +39°C° 0 mm 1 mps 740 mmHg 35%
    13:00 +41°C° 0 mm 1 mps 739 mmHg 29%
    14:00 +39°C° 0 mm 1 mps 738 mmHg 32%
    15:00 +37°C° 0 mm 1 mps 738 mmHg 35%
    16:00 +35°C° 0 mm 1 mps 737 mmHg 38%
    17:00 +33°C° 0 mm 1 mps 737 mmHg 45%
    18:00 +31°C° 0 mm 1 mps 738 mmHg 52%
    19:00 +29°C° 0 mm 1 mps 738 mmHg 59%
    20:00 +28°C° 0 mm 1 mps 738 mmHg 65%
    21:00 +25°C° 0 mm 0 mps 739 mmHg 70%
    22:00 +24°C° 0 mm 0 mps 739 mmHg 76%
    23:00 +23°C° 0 mm 0 mps 739 mmHg 78%

    28 February, Wednesday

    Time Temperature Precipitation Wind Pressure Humidity
    00:00 +23°C° 0 mm 0 mps 739 mmHg 79%
    01:00 +22°C° 0 mm 0 mps 739 mmHg 81%
    02:00 +22°C° 0 mm 0 mps 738 mmHg 82%
    03:00 +21°C° 0 mm 0 mps 738 mmHg 83%
    04:00 +21°C° 0 mm 0 mps 738 mmHg 84%
    05:00 +21°C° 0 mm 0 mps 738 mmHg 83%
    06:00 +23°C° 0 mm 1 mps 739 mmHg 82%
    07:00 +22°C° 0 mm 1 mps 739 mmHg 81%
    08:00 +27°C° 0 mm 1 mps 739 mmHg 67%
    09:00 +29°C° 0 mm 0 mps 740 mmHg 52%
    10:00 +33°C° 0 mm 0 mps 740 mmHg 38%
    11:00 +36°C° 0 mm 1 mps 740 mmHg 32%
    12:00 +39°C° 0 mm 1 mps 739 mmHg 27%
    13:00 +40°C° 0 mm 1 mps 739 mmHg 22%
    14:00 +40°C° 0 mm 1 mps 738 mmHg 23%
    15:00 +39°C° 0 mm 2 mps 737 mmHg 23%
    16:00 +39°C° 0 mm 2 mps 737 mmHg 24%
    17:00 +36°C° 0 mm 2 mps 737 mmHg 34%
    18:00 +32°C° 0 mm 1 mps 737 mmHg 43%
    19:00 +29°C° 0 mm 1 mps 737 mmHg 53%
    20:00 +27°C° 0 mm 1 mps 738 mmHg 60%
    21:00 +26°C° 0 mm 1 mps 738 mmHg 67%
    22:00 +22°C° 0 mm 0 mps 739 mmHg 74%
    23:00 +22°C° 0 mm 0 mps 739 mmHg 77%
    Show more